When you browse on this site, cookies collect data to enhance your experience and personalize the content and advertising you see.
Visit our Privacy Policy to learn more. By continuing to use the site, you agree to this use of cookies and data.

Meteo pe oră la Saint-Ouen

Astăzi, 11 Iulie, Sâmbătă

Timp Temperatura Precipitaţii Vânt Presiune Umiditate
00:00 +14°C° 0 mm 2 m/s 762 mmHg 73%
01:00 +13°C° 0 mm 2 m/s 762 mmHg 74%
02:00 +13°C° 0 mm 2 m/s 762 mmHg 75%
03:00 +12°C° 0 mm 2 m/s 762 mmHg 77%
04:00 +13°C° 0 mm 1 m/s 762 mmHg 74%
05:00 +14°C° 0 mm 1 m/s 763 mmHg 71%
06:00 +15°C° 0 mm 1 m/s 763 mmHg 68%
07:00 +16°C° 0 mm 1 m/s 763 mmHg 61%
08:00 +18°C° 0 mm 2 m/s 764 mmHg 53%
09:00 +20°C° 0 mm 2 m/s 764 mmHg 45%
10:00 +21°C° 0 mm 2 m/s 764 mmHg 42%
11:00 +23°C° 0 mm 2 m/s 764 mmHg 40%
12:00 +22°C° 0 mm 3 m/s 764 mmHg 37%
13:00 +24°C° 0 mm 3 m/s 764 mmHg 38%
14:00 +23°C° 0 mm 4 m/s 764 mmHg 39%
15:00 +23°C° 0 mm 4 m/s 764 mmHg 40%
16:00 +22°C° 0 mm 4 m/s 764 mmHg 43%
17:00 +22°C° 0 mm 4 m/s 764 mmHg 46%
18:00 +21°C° 0 mm 4 m/s 764 mmHg 50%
19:00 +19°C° 0 mm 4 m/s 764 mmHg 55%
20:00 +18°C° 0 mm 3 m/s 764 mmHg 60%
21:00 +16°C° 0 mm 3 m/s 765 mmHg 66%
22:00 +14°C° 0 mm 3 m/s 765 mmHg 68%
23:00 +14°C° 0 mm 3 m/s 765 mmHg 71%

Mâine, 12 Iulie, Duminică

Timp Temperatura Precipitaţii Vânt Presiune Umiditate
00:00 +13°C° 0 mm 3 m/s 765 mmHg 73%
01:00 +12°C° 0 mm 3 m/s 765 mmHg 75%
02:00 +12°C° 0 mm 3 m/s 764 mmHg 76%
03:00 +11°C° 0 mm 3 m/s 764 mmHg 78%
04:00 +12°C° 0 mm 3 m/s 764 mmHg 76%
05:00 +12°C° 0 mm 3 m/s 764 mmHg 75%
06:00 +13°C° 0 mm 3 m/s 765 mmHg 73%
07:00 +14°C° 0 mm 3 m/s 765 mmHg 66%
08:00 +17°C° 0 mm 3 m/s 765 mmHg 58%
09:00 +19°C° 0 mm 3 m/s 765 mmHg 51%
10:00 +20°C° 0 mm 3 m/s 765 mmHg 47%
11:00 +22°C° 0 mm 3 m/s 765 mmHg 43%
12:00 +24°C° 0 mm 3 m/s 765 mmHg 38%
13:00 +24°C° 0 mm 3 m/s 764 mmHg 37%
14:00 +25°C° 0 mm 3 m/s 764 mmHg 37%
15:00 +25°C° 0 mm 3 m/s 763 mmHg 36%
16:00 +25°C° 0 mm 3 m/s 763 mmHg 40%
17:00 +24°C° 0 mm 3 m/s 763 mmHg 44%
18:00 +24°C° 0 mm 3 m/s 763 mmHg 47%
19:00 +21°C° 0 mm 3 m/s 763 mmHg 52%
20:00 +20°C° 0 mm 3 m/s 763 mmHg 57%
21:00 +18°C° 0 mm 3 m/s 763 mmHg 61%
22:00 +17°C° 0 mm 3 m/s 763 mmHg 65%
23:00 +16°C° 0 mm 3 m/s 763 mmHg 69%

Poimâine, 13 Iulie, Luni

Timp Temperatura Precipitaţii Vânt Presiune Umiditate
00:00 +16°C° 0 mm 3 m/s 763 mmHg 72%
01:00 +14°C° 0 mm 3 m/s 763 mmHg 74%
02:00 +13°C° 0 mm 3 m/s 763 mmHg 76%
03:00 +13°C° 0 mm 3 m/s 763 mmHg 78%
04:00 +13°C° 0 mm 3 m/s 763 mmHg 76%
05:00 +14°C° 0 mm 3 m/s 763 mmHg 74%
06:00 +14°C° 0 mm 3 m/s 762 mmHg 71%
07:00 +18°C° 0 mm 3 m/s 762 mmHg 64%
08:00 +20°C° 0 mm 3 m/s 763 mmHg 58%
09:00 +22°C° 0 mm 3 m/s 763 mmHg 51%
10:00 +24°C° 0 mm 3 m/s 762 mmHg 47%
11:00 +25°C° 0 mm 3 m/s 762 mmHg 44%
12:00 +26°C° 0 mm 2 m/s 762 mmHg 40%
13:00 +26°C° 0 mm 3 m/s 761 mmHg 39%
14:00 +27°C° 0 mm 3 m/s 761 mmHg 38%
15:00 +27°C° 0 mm 3 m/s 761 mmHg 37%
16:00 +26°C° 0 mm 3 m/s 760 mmHg 40%
17:00 +25°C° 0 mm 3 m/s 760 mmHg 43%
18:00 +24°C° 0 mm 3 m/s 760 mmHg 46%
19:00 +22°C° 0 mm 3 m/s 760 mmHg 51%
20:00 +20°C° 0 mm 3 m/s 760 mmHg 57%
21:00 +18°C° 0 mm 3 m/s 760 mmHg 63%
22:00 +17°C° 0 mm 3 m/s 760 mmHg 65%
23:00 +16°C° 0 mm 2 m/s 760 mmHg 68%

14 Iulie, Marţi

Timp Temperatura Precipitaţii Vânt Presiune Umiditate
00:00 +16°C° 0 mm 2 m/s 760 mmHg 71%
01:00 +15°C° 0 mm 2 m/s 760 mmHg 71%
02:00 +15°C° 0 mm 2 m/s 759 mmHg 71%
03:00 +14°C° 0 mm 2 m/s 759 mmHg 71%
04:00 +15°C° 0 mm 1 m/s 759 mmHg 68%
05:00 +16°C° 0 mm 1 m/s 759 mmHg 65%
06:00 +16°C° 0 mm 1 m/s 759 mmHg 62%
07:00 +18°C° 0 mm 1 m/s 759 mmHg 57%
08:00 +20°C° 0 mm 1 m/s 759 mmHg 52%
09:00 +21°C° 0 mm 1 m/s 758 mmHg 48%
10:00 +22°C° 0 mm 1 m/s 758 mmHg 46%
11:00 +23°C° 0 mm 2 m/s 758 mmHg 45%
12:00 +22°C° 0 mm 3 m/s 758 mmHg 43%
13:00 +22°C° 0 mm 3 m/s 757 mmHg 47%
14:00 +21°C° 0 mm 3 m/s 757 mmHg 51%
15:00 +20°C° 0 mm 3 m/s 757 mmHg 55%
16:00 +20°C° 0 mm 3 m/s 757 mmHg 61%
17:00 +20°C° 0 mm 3 m/s 757 mmHg 67%
18:00 +19°C° 0 mm 3 m/s 756 mmHg 73%
19:00 +19°C° 0.1 mm 2 m/s 757 mmHg 75%
20:00 +18°C° 0.1 mm 2 m/s 757 mmHg 78%
21:00 +18°C° 0.1 mm 2 m/s 757 mmHg 81%
22:00 +17°C° 0 mm 3 m/s 757 mmHg 82%
23:00 +16°C° 0 mm 3 m/s 757 mmHg 84%

15 Iulie, Miercuri

Timp Temperatura Precipitaţii Vânt Presiune Umiditate
00:00 +16°C° 0 mm 3 m/s 757 mmHg 85%
01:00 +14°C° 0 mm 3 m/s 757 mmHg 85%
02:00 +14°C° 0 mm 3 m/s 757 mmHg 85%
03:00 +14°C° 0 mm 3 m/s 757 mmHg 85%
04:00 +14°C° 0 mm 3 m/s 757 mmHg 84%
05:00 +14°C° 0 mm 3 m/s 757 mmHg 82%
06:00 +14°C° 0 mm 3 m/s 757 mmHg 81%
07:00 +16°C° 0.1 mm 3 m/s 757 mmHg 80%
08:00 +16°C° 0.1 mm 3 m/s 757 mmHg 80%
09:00 +15°C° 0.1 mm 4 m/s 757 mmHg 79%
10:00 +17°C° 0.1 mm 4 m/s 757 mmHg 79%
11:00 +17°C° 0.1 mm 4 m/s 758 mmHg 78%
12:00 +18°C° 0.1 mm 4 m/s 758 mmHg 78%
13:00 +19°C° 0 mm 4 m/s 758 mmHg 77%
14:00 +19°C° 0 mm 4 m/s 757 mmHg 75%
15:00 +20°C° 0 mm 4 m/s 757 mmHg 74%
16:00 +20°C° 0 mm 4 m/s 757 mmHg 75%
17:00 +20°C° 0 mm 4 m/s 758 mmHg 75%
18:00 +19°C° 0 mm 3 m/s 758 mmHg 76%
19:00 +19°C° 0.1 mm 3 m/s 758 mmHg 77%
20:00 +18°C° 0.1 mm 3 m/s 758 mmHg 78%
21:00 +18°C° 0.1 mm 3 m/s 759 mmHg 79%
22:00 +17°C° 0 mm 3 m/s 759 mmHg 81%
23:00 +16°C° 0 mm 3 m/s 759 mmHg 82%

16 Iulie, Joi

Timp Temperatura Precipitaţii Vânt Presiune Umiditate
00:00 +16°C° 0 mm 2 m/s 759 mmHg 84%
01:00 +16°C° 0 mm 2 m/s 759 mmHg 85%
02:00 +15°C° 0 mm 2 m/s 759 mmHg 87%
03:00 +15°C° 0 mm 2 m/s 759 mmHg 88%
04:00 +16°C° 0 mm 2 m/s 759 mmHg 87%
05:00 +16°C° 0 mm 2 m/s 760 mmHg 85%
06:00 +17°C° 0 mm 2 m/s 760 mmHg 84%
07:00 +18°C° 0.1 mm 2 m/s 760 mmHg 80%
08:00 +19°C° 0.1 mm 2 m/s 760 mmHg 77%
09:00 +20°C° 0.1 mm 2 m/s 761 mmHg 73%
10:00 +20°C° 0.1 mm 2 m/s 761 mmHg 69%
11:00 +21°C° 0.1 mm 2 m/s 761 mmHg 66%
12:00 +23°C° 0.1 mm 2 m/s 761 mmHg 62%
13:00 +23°C° 0 mm 2 m/s 761 mmHg 61%
14:00 +23°C° 0 mm 2 m/s 760 mmHg 60%
15:00 +23°C° 0 mm 2 m/s 760 mmHg 59%
16:00 +23°C° 0 mm 2 m/s 760 mmHg 60%
17:00 +23°C° 0 mm 2 m/s 760 mmHg 62%
18:00 +23°C° 0 mm 2 m/s 760 mmHg 64%
19:00 +20°C° 0 mm 2 m/s 761 mmHg 68%
20:00 +19°C° 0 mm 2 m/s 761 mmHg 73%
21:00 +18°C° 0 mm 2 m/s 761 mmHg 77%
22:00 +17°C° 0 mm 2 m/s 761 mmHg 79%
23:00 +17°C° 0 mm 2 m/s 761 mmHg 82%
Arată mai mult